AAL354 MZBZ-KMIA

Flight info

Callsign AAL354
Flight time N/A
Altitude 37000
Route LITRA1D LITRA UR899 CTM UT32 ALSUP DCT HECAT DCT NUKAN UG765 MAXIM SNDBR3
Aircraft B77W/H-SDE1E2E3FGHIJ2J3J4J5M1RWXY/LB1D1

Departure

Time 2026-04-20 20:41
Airport Philip S. W. Goldson International Airport (MZBZ)

Arrival

Time N/A
Airport Miami International Airport (KMIA)
Time Latitude Longitude Altitude Speed Heading
2026-04-20 20:11 17.53724 -88.30605 24 ft 0 kts 159°
2026-04-20 20:27 17.53726 -88.30599 24 ft 4 kts 117°
2026-04-20 20:27 17.53741 -88.30606 22 ft 4 kts 161°
2026-04-20 20:27 17.53763 -88.30611 24 ft 4 kts 142°
2026-04-20 20:27 17.53775 -88.30625 26 ft 4 kts 89°
2026-04-20 20:28 17.53774 -88.30648 22 ft 1 kts 104°
2026-04-20 20:28 17.53776 -88.30672 22 ft 4 kts 68°
2026-04-20 20:28 17.53764 -88.30695 24 ft 3 kts 75°
2026-04-20 20:28 17.53764 -88.30698 22 ft 0 kts 78°
2026-04-20 20:33 17.53764 -88.30697 22 ft 1 kts 78°
2026-04-20 20:33 17.53767 -88.30684 22 ft 5 kts 78°
2026-04-20 20:33 17.53779 -88.30642 26 ft 6 kts 69°
2026-04-20 20:34 17.53790 -88.30598 23 ft 6 kts 77°
2026-04-20 20:34 17.53800 -88.30552 25 ft 6 kts 77°
2026-04-20 20:34 17.53796 -88.30513 23 ft 5 kts 143°
2026-04-20 20:34 17.53776 -88.30532 22 ft 5 kts 264°
2026-04-20 20:35 17.53775 -88.30591 26 ft 11 kts 271°
2026-04-20 20:35 17.53769 -88.30670 23 ft 11 kts 258°
2026-04-20 20:35 17.53752 -88.30750 24 ft 11 kts 258°
2026-04-20 20:35 17.53727 -88.30856 23 ft 21 kts 255°
2026-04-20 20:36 17.53694 -88.31011 24 ft 22 kts 259°
2026-04-20 20:36 17.53661 -88.31166 24 ft 22 kts 257°
2026-04-20 20:36 17.53629 -88.31303 22 ft 17 kts 257°
2026-04-20 20:36 17.53603 -88.31424 24 ft 17 kts 256°
2026-04-20 20:37 17.53576 -88.31535 24 ft 15 kts 256°
2026-04-20 20:37 17.53555 -88.31644 25 ft 15 kts 258°
2026-04-20 20:37 17.53537 -88.31729 22 ft 5 kts 264°
2026-04-20 20:37 17.53549 -88.31763 23 ft 5 kts 312°
2026-04-20 20:38 17.53582 -88.31776 24 ft 0 kts 346°
2026-04-20 20:38 17.53583 -88.31776 22 ft 1 kts 346°
2026-04-20 20:38 17.53598 -88.31780 25 ft 0 kts 346°
2026-04-20 20:39 17.53645 -88.31792 24 ft 11 kts 346°
2026-04-20 20:39 17.53680 -88.31800 22 ft 1 kts 354°
2026-04-20 20:40 17.53691 -88.31789 22 ft 4 kts 59°
2026-04-20 20:40 17.53698 -88.31766 22 ft 0 kts 75°
2026-04-20 20:40 17.53703 -88.31743 25 ft 19 kts 75°
2026-04-20 20:40 17.53798 -88.31308 19 ft 105 kts 77°
2026-04-20 20:41 17.54020 -88.30304 28 ft 175 kts 76°
2026-04-20 20:41 17.54312 -88.29004 720 ft 180 kts 76°
2026-04-20 20:41 17.54598 -88.27719 1506 ft 190 kts 76°
2026-04-20 20:41 17.54875 -88.26297 2058 ft 209 kts 77°
2026-04-20 20:42 17.55443 -88.24842 2460 ft 230 kts 51°
2026-04-20 20:42 17.56829 -88.23852 2731 ft 262 kts 14°
2026-04-20 20:42 17.58661 -88.23840 3626 ft 253 kts 356°
2026-04-20 20:42 17.60279 -88.23892 5347 ft 224 kts
2026-04-20 20:43 17.61927 -88.23834 5839 ft 246 kts
2026-04-20 20:43 17.63728 -88.23728 6005 ft 270 kts
2026-04-20 20:43 17.65607 -88.23633 6005 ft 271 kts
2026-04-20 20:43 17.67501 -88.23550 6006 ft 273 kts
2026-04-20 20:44 17.69401 -88.23477 6008 ft 274 kts
2026-04-20 20:44 17.71306 -88.23414 6004 ft 272 kts 360°
2026-04-20 20:44 17.73194 -88.23630 6388 ft 273 kts 351°
2026-04-20 20:44 17.75082 -88.24002 7302 ft 278 kts 349°
2026-04-20 20:45 17.76998 -88.24398 8196 ft 282 kts 349°
2026-04-20 20:45 17.78940 -88.24795 9076 ft 287 kts 350°
2026-04-20 20:45 17.80923 -88.25193 9866 ft 293 kts 350°
2026-04-20 20:45 17.82961 -88.25595 10559 ft 306 kts 350°
2026-04-20 20:46 17.84390 -88.25873 10722 ft 325 kts 350°
2026-04-20 20:46 17.87534 -88.26477 11099 ft 359 kts 350°
2026-04-20 20:46 17.89180 -88.26792 11553 ft 367 kts 350°
2026-04-20 20:46 17.91733 -88.27278 12385 ft 377 kts 350°
2026-04-20 20:47 17.94323 -88.27770 13421 ft 380 kts 350°
2026-04-20 20:47 17.96944 -88.28265 14457 ft 384 kts 350°
2026-04-20 20:47 17.99590 -88.28765 15418 ft 389 kts 351°
2026-04-20 20:47 18.02273 -88.29272 16327 ft 394 kts 351°
2026-04-20 20:48 18.04992 -88.29785 17211 ft 399 kts 351°
2026-04-20 20:48 18.07738 -88.30306 18100 ft 404 kts 351°
2026-04-20 20:48 18.10519 -88.30833 18938 ft 408 kts 351°
2026-04-20 20:48 18.13334 -88.31366 19697 ft 414 kts 350°
2026-04-20 20:49 18.16190 -88.31907 20431 ft 420 kts 350°
2026-04-20 20:49 18.19081 -88.32455 21159 ft 425 kts 349°
2026-04-20 20:49 18.22012 -88.32954 21875 ft 428 kts 354°
2026-04-20 20:49 18.25009 -88.33125 22574 ft 433 kts 359°
2026-04-20 20:50 18.28033 -88.33121 23240 ft 438 kts 360°
2026-04-20 20:50 18.31100 -88.33090 23813 ft 444 kts 359°
2026-04-20 20:50 18.34221 -88.33089 24323 ft 452 kts 358°
2026-04-20 20:50 18.37375 -88.33125 24922 ft 455 kts 358°
2026-04-20 20:51 18.40554 -88.33185 25581 ft 458 kts 357°
2026-04-20 20:51 18.43751 -88.33254 26221 ft 460 kts 357°
2026-04-20 20:51 18.44483 -88.33269 26360 ft 461 kts 357°